Search for airport 
image banner adimage banner adimage banner ad
image banner ad

1L3 - Searchlight

Located in Searchlight, United States

ICAO - 1L3, IATA -

Data provided by Airmate  

General information

Coordinates: N35°26'40" W114°54'34"
Elevation is 3413 feet MSL.
Magnetic variation is 14° East
View others Airports in Nevada

Operational data

Special qualification required
Current time UTC:
Current local time:
Weather at : KIFP - Laughlin/Bullhead Intl ( 45 km )
METAR: KIFP 130215Z AUTO 18006KT 10SM CLR 41/M12 A2966 RMK AO2
TAF: KIFP 122320Z 1300/1324 20010KT P6SM FEW250 FM130800 VRB05KT P6SM FEW250 FM131800 19015G24KT P6SM FEW250
View NOTAMs / SUP AIP / TFR affecting this airport [VIEW]
Communications frequencies: [VIEW]

Runways:

RWY identifierQFULength (ft)Width (ft)SurfaceLDA (ft)
16176°504070ASPH
34356°504070ASPH

Airport contact information

Address: Searchlight United States

Satellite view of 1L3